Fairbanks Eiels, AK

4:18 AM AKDT on July 29, 2017 (GMT -0800)
Eielson Air Force Base

Weather History for PAEI - May, 2013

Change the Weather History Date:

Friday, May 17, 2013

  Actual Average Record
Temperature  
Mean Temperature 32 °F -  
Max Temperature 37 °F 59 °F 78 °F (2015)
Min Temperature 26 °F 36 °F 24 °F (1967)
Degree Days  
Heating Degree Days 34    
Moisture  
Dew Point 27 °F    
Average Humidity 79    
Maximum Humidity 93    
Minimum Humidity 65    
Precipitation  
Precipitation 0.00 in - - ()
Sea Level Pressure  
Sea Level Pressure 29.52 in    
Wind  
Wind Speed 6 mph (West)    
Max Wind Speed 15 mph    
Max Gust Speed 21 mph    
Visibility 9 miles    
Events Rain , Snow    
Averages and records for this station are not official NWS values.
T = Trace of Precipitation, MM = Missing Value Source: NWS Daily Summary

Daily Weather History Graph

Daily Weather History Graph

Search for Another Location

Airport or City:

Trip Planner

Search our weather history database for the weather conditions in past years. The results will help you decide how hot, cold, wet, or windy it might be!

Date:

Astronomy

May. 17, 2013 Rise Set
Actual Time 4:19 AM AKDT 11:13 PM AKDT
Civil Twilight 2:17 AM AKDT 1:12 AM AKDT
Nautical Twilight Sun does not set Sun does not set
Astronomical Twilight Sun does not set Sun does not set
Moon 12:24 PM AKDT (5/17) 2:52 AM AKDT (5/17)
Length of Visible Light 22h 55m
Length of Day
18h 53m
Waxing Crescent, 46% of the Moon is Illuminated
May 17
Waxing Crescent
May 17
First Quarter
May 24
Full
May 31
Last Quarter
Jun 8
New

Hourly Weather History & Observations

Time (AKDT) Temp. Windchill Dew Point Humidity Pressure Visibility Wind Dir Wind Speed Gust Speed Precip Events Conditions
12:55 AM 37.9 °F - 28.8 °F 70% 29.40 in 10.0 mi Calm Calm - N/A   Scattered Clouds
1:55 AM 36.7 °F - 28.0 °F 71% 29.39 in 10.0 mi Calm Calm - N/A   Clear
2:55 AM 36.7 °F - 27.7 °F 70% 29.39 in 10.0 mi Calm Calm - N/A   Mostly Cloudy
3:55 AM 34.2 °F - 28.4 °F 79% 29.39 in 10.0 mi Calm Calm - N/A   Partly Cloudy
4:55 AM 30.7 °F - 27.1 °F 86% 29.39 in 10.0 mi Calm Calm - N/A   Scattered Clouds
5:55 AM 33.1 °F 28.7 °F 27.5 °F 80% 29.41 in 10.0 mi South 4.6 mph - N/A   Clear
6:55 AM 34.0 °F 28.8 °F 29.8 °F 85% 29.42 in 10.0 mi SSE 5.8 mph - N/A   Overcast
7:15 AM 33.8 °F 28.6 °F 30.2 °F 87% 29.43 in 10.0 mi South 5.8 mph - N/A   Overcast
7:55 AM 35.2 °F 32.4 °F 30.2 °F 82% 29.43 in 10.0 mi Variable 3.5 mph - N/A   Mostly Cloudy
8:55 AM 35.8 °F 30.9 °F 30.0 °F 80% 29.45 in 10.0 mi SW 5.8 mph - N/A   Overcast
9:55 AM 35.2 °F 28.1 °F 30.7 °F 84% 29.46 in 10.0 mi WSW 9.2 mph - 0.00 in   Overcast
10:19 AM 33.8 °F 27.0 °F 30.2 °F 87% 29.46 in 10.0 mi West 8.1 mph - N/A   Overcast
10:39 AM 33.8 °F 25.8 °F 32.0 °F 93% 29.44 in 5.0 mi WSW 10.4 mph - N/A Rain , Snow Light Rain
10:55 AM 34.0 °F 26.0 °F 30.9 °F 89% 29.47 in 6.0 mi WSW 10.4 mph - 0.00 in Rain , Snow Light Rain
11:55 AM 34.5 °F 27.3 °F 30.4 °F 85% 29.48 in 6.0 mi West 9.2 mph - 0.00 in Rain , Snow Light Rain
12:15 PM 33.8 °F 25.3 °F 30.2 °F 87% 29.49 in 6.0 mi West 11.5 mph 18.4 mph N/A Rain , Snow Light Rain
12:55 PM 34.2 °F 27.5 °F 29.5 °F 83% 29.49 in 6.0 mi WSW 8.1 mph - 0.00 in Rain , Snow Light Rain
1:22 PM 35.6 °F 28.0 °F 28.4 °F 75% 29.50 in 10.0 mi West 10.4 mph - N/A   Overcast
1:55 PM 34.9 °F 27.1 °F 28.4 °F 77% 29.51 in 4.0 mi West 10.4 mph - 0.00 in Snow Light Snow
2:55 PM 35.1 °F 25.9 °F 28.8 °F 78% 29.52 in 10.0 mi West 13.8 mph - 0.00 in Rain Light Rain
3:26 PM 35.6 °F 26.6 °F 28.4 °F 75% 29.54 in 10.0 mi West 13.8 mph - N/A   Overcast
3:55 PM 35.6 °F 27.5 °F 28.4 °F 75% 29.60 in 10.0 mi West 11.5 mph - N/A Rain Light Rain
4:22 PM 35.6 °F 27.5 °F 28.4 °F 75% 29.55 in 10.0 mi West 11.5 mph - N/A Rain Light Rain
4:55 PM 34.9 °F 27.7 °F 26.8 °F 72% 29.55 in 10.0 mi WNW 9.2 mph - 0.00 in Rain Light Rain
5:35 PM 35.6 °F 26.2 °F 24.8 °F 65% 29.55 in 10.0 mi West 15.0 mph 20.7 mph N/A   Overcast
5:55 PM 33.8 °F 24.8 °F 26.6 °F 75% 29.61 in 10.0 mi WNW 12.7 mph - N/A   Overcast
6:42 PM 33.8 °F 27.0 °F 26.6 °F 75% 29.57 in 10.0 mi WNW 8.1 mph - N/A   Overcast
7:55 PM 31.6 °F 23.1 °F 25.0 °F 76% 29.60 in 10.0 mi West 10.4 mph - 0.00 in   Overcast
8:31 PM 32.0 °F 22.5 °F 24.8 °F 75% 29.60 in 7.0 mi West 12.7 mph - N/A Snow Light Snow
8:55 PM 30.9 °F 21.2 °F 24.1 °F 76% 29.61 in 7.0 mi West 12.7 mph - 0.00 in Snow Light Snow
9:55 PM 29.8 °F 20.9 °F 23.7 °F 78% 29.64 in 10.0 mi West 10.4 mph - 0.00 in   Overcast
10:08 PM 30.2 °F 21.9 °F 23.0 °F 75% 29.64 in 6.0 mi West 9.2 mph 18.4 mph N/A Snow Light Snow
10:22 PM 28.4 °F 19.1 °F 23.0 °F 80% 29.65 in 6.0 mi West 10.4 mph - N/A Snow Light Snow
10:28 PM 28.4 °F 20.4 °F 21.2 °F 74% 29.65 in 7.0 mi West 8.1 mph - N/A   Overcast
10:55 PM 27.7 °F 18.2 °F 21.6 °F 78% 29.66 in 10.0 mi West 10.4 mph - 0.00 in   Overcast
11:08 PM 26.6 °F 15.7 °F 21.2 °F 80% 29.66 in 10.0 mi West 12.7 mph - N/A   Overcast
11:55 PM 26.4 °F 15.5 °F 20.8 °F 79% 29.68 in 10.0 mi West 12.7 mph - 0.00 in   Overcast